[[{"header":{"parameterUnit":"m.s-1","parameterCategory":1,"la1":30.2991,"la2":30.254,"lo1":-89.0895,"lo2":-89.0444,"dy":0.0017,"dx":0.0017,"nx":28,"ny":28,"refTime":"2024-07-20T03:00:00:Z","depth":0,"parameterNumber":2,"parameterNumberName":"U-component_of_WINDS"},"data":[0,0,0,0,0,0,0,0,0,0,0,0,0,0,0,0,0,0,0,0,0,0,0,0,0,0,0,0,0,0,0,0,0,0,0,0,0,0,0,0,0,0,0,0,0,0,0,0,0,0,0,0,0,0,0,0,0,0,0.7387,0.7387,0,0.7406,0.7406,0.7407,0.7391,0.739,0.7389,0.7389,0.7412,0.7413,0.7414,0,0,0,0,0,0,0,0,0,0,0,0,0,0.7338,0.7339,0.7387,0.7387,0.7387,0.7406,0.7406,0.7407,0.7391,0.739,0.7389,0.7388,0.7411,0.7413,0.7414,0,0,0,0,0,0,0,0,0,0,0,0,0,0.7359,0.734,0.7387,0.7382,0.7381,0.7406,0.7406,0.7407,0.7391,0.739,0.7389,0.7388,0.7411,0.7413,0.7415,0.7446,0,0,0.742,0.7421,0,0,0,0,0,0,0,0,0.7358,0.7361,0.7382,0.7382,0.7382,0.7395,0.7398,0.742,0.7391,0.7388,0.7389,0.7388,0.7407,0.7409,0.7415,0.7447,0.7448,0.742,0.7422,0.7422,0.7423,0,0,0,0,0,0,0,0.7356,0.736,0.7395,0.7383,0.7382,0.7379,0.7381,0.7402,0.7403,0.7388,0.7387,0.7389,0.7407,0.7414,0.7416,0.7449,0.742,0.7422,0.7423,0.7424,0.7507,0.7508,0,0,0,0,0,0,0.7355,0.7359,0.7394,0.7395,0.7367,0.7381,0.7383,0.7392,0.7403,0.7403,0.739,0.7388,0.7411,0.7414,0.7416,0.7454,0.7422,0.7424,0.7425,0.7506,0.7508,0.7509,0,0,0,0,0,0,0.7354,0.7358,0.7393,0.7377,0.7381,0.7383,0.7393,0.7393,0.7399,0.7404,0.7405,0.7396,0.741,0.7414,0.7439,0.7455,0.7425,0.7427,0.7505,0.7507,0.7508,0.753,0,0,0,0,0,0,0.7353,0.7358,0.737,0.7377,0.7382,0.7415,0.7394,0.7394,0.7402,0.74,0.741,0.7411,0.741,0.7436,0.7441,0.7457,0.7428,0.7504,0.7506,0.7508,0.7528,0.7532,0.7536,0,0,0,0,0,0.7351,0.7376,0.737,0.7375,0.7396,0.7416,0.7418,0.7415,0.7404,0.7416,0.7419,0.7411,0.7452,0.7439,0.7444,0.7461,0.7503,0.7505,0.7507,0.7526,0.7532,0.7536,0,0,0,0,0,0,0.7372,0.7377,0.7371,0.7399,0.7407,0.7413,0.7428,0.7421,0.7434,0.7431,0.7428,0.743,0.7456,0.7461,0.7446,0.7492,0.7475,0.7479,0.7488,0.7493,0.7497,0.7496,0.743,0,0,0,0,0,0.738,0.7394,0.7398,0.7422,0.7426,0.7427,0.7435,0.7432,0.744,0.7444,0.7449,0.7458,0.7473,0.7483,0.7497,0.7528,0.753,0.7542,0.7546,0.755,0.7553,0.7569,0.7575,0.7517,0.7517,0.7517,0,0,0.7397,0.7401,0.7411,0.7427,0.7433,0.7448,0.743,0.7447,0.7459,0.7447,0.747,0.7474,0.7484,0.7512,0.7525,0.7517,0.7569,0.7553,0.7555,0.7557,0.7573,0.7578,0.7583,0.7519,0.7518,0.7518,0,0,0.7435,0.7439,0.746,0.7466,0.7474,0.7474,0.7478,0.7485,0.7487,0.751,0.7501,0.7515,0.7541,0.7549,0.7556,0.7595,0.7588,0.76,0.7621,0.7637,0.7642,0.7646,0.766,0.7665,0.7603,0.7603,0.7603,0,0.7455,0.7477,0.7472,0.7489,0.7497,0.7485,0.7506,0.7512,0.7525,0.7531,0.7521,0.7553,0.7559,0.7588,0.7598,0.7604,0.761,0.7599,0.7641,0.7645,0.7649,0.7663,0.7668,0.7605,0.7604,0.7604,0.7604,0,0.7501,0.7517,0.7533,0.7544,0.7553,0.7573,0.757,0.758,0.7576,0.7577,0.76,0.7607,0.7622,0.7628,0.7625,0.7657,0.7651,0.7642,0.7625,0.7656,0.7669,0.7674,0.7606,0.7606,0.7606,0.7605,0,0,0.7556,0.7562,0.7568,0.7573,0.758,0.7593,0.7611,0.7625,0.7633,0.7642,0.7658,0.768,0.767,0.7678,0.7675,0.7689,0.772,0.7678,0.7678,0.7686,0.7756,0.7763,0.7769,0.7715,0.7716,0.7717,0.7755,0,0.7594,0.7626,0.7621,0.7651,0.7666,0.7654,0.767,0.7677,0.7678,0.769,0.7692,0.7707,0.7693,0.7698,0.7711,0.7713,0.7734,0.771,0.773,0.7731,0.7729,0.7776,0.7785,0.782,0.776,0.7761,0.7761,0,0.7644,0.7654,0.7685,0.769,0.7696,0.771,0.7722,0.7734,0.7741,0.774,0.7749,0.7743,0.7762,0.7744,0.777,0.7754,0.7762,0.7764,0.7766,0.7768,0.7749,0.778,0.7832,0.7837,0.7769,0.7768,0.7768,0,0.7681,0.7701,0.7723,0.7727,0.7733,0.7743,0.7746,0.7752,0.776,0.777,0.7775,0.7788,0.7795,0.7805,0.7803,0.779,0.783,0.7812,0.7831,0.7831,0.784,0.784,0.7894,0.7844,0.7844,0.7844,0.7844,0,0.7725,0.7745,0.7739,0.7753,0.7775,0.7768,0.7791,0.7792,0.7797,0.7811,0.7802,0.7815,0.7811,0.7824,0.7822,0.7844,0.7848,0.7848,0.7848,0.7849,0.7849,0.7855,0.7853,0.7845,0.7845,0.7845,0.7845,0,0.777,0.7767,0.7789,0.7792,0.7793,0.781,0.7812,0.7825,0.7824,0.7842,0.7846,0.7845,0.786,0.7858,0.7875,0.7874,0.7901,0.7897,0.7899,0.7898,0.7917,0.7915,0.7977,0.7985,0.7929,0.793,0.793,0,0.7799,0.7814,0.7818,0.7826,0.7829,0.7842,0.785,0.7844,0.7852,0.7861,0.7873,0.7886,0.7897,0.7921,0.7923,0.7936,0.7933,0.7953,0.7935,0.7936,0.7933,0.7933,0.7934,0.7958,0.7958,0.7959,0.7959,0,0.7851,0.7848,0.7859,0.7869,0.7878,0.7886,0.7893,0.79,0.7895,0.7905,0.7919,0.7927,0.7944,0.7958,0.7969,0.7973,0.7966,0.7965,0.797,0.7972,0.7972,0.7973,0.7909,0.7964,0.7963,0.7963,0.7963,0.7963,0.7889,0.7902,0.7906,0.7918,0.7922,0.7929,0.794,0.794,0.7952,0.7964,0.796,0.7976,0.7982,0.7997,0.8002,0.8015,0.8007,0.8015,0.8017,0.8019,0.8021,0.7969,0.8017,0.8017,0.8017,0.8017,0.8017,0,0.7941,0.7942,0.7953,0.7963,0.7972,0.7963,0.7969,0.7978,0.7993,0.7998,0.8008,0.8025,0.8038,0.8039,0.8052,0.8062,0.8059,0.8065,0.8065,0.8066,0.8027,0.8021,0.8068,0.8068,0.8068,0.8068,0.8068,0.8068,0.7969,0.7989,0.7987,0.8009,0.8011,0.8026,0.803,0.8036,0.8041,0.8059,0.8069,0.8069,0.8074,0.8086,0.8097,0.8098,0.8103,0.8111,0.811,0.8074,0.8069,0.8064,0.8059,0.8112,0.8112,0.8148,0.8148,0.8149]},{"header":{"parameterUnit":"m.s-1","parameterCategory":1,"la1":30.2991,"la2":30.254,"lo1":-89.0895,"lo2":-89.0444,"dy":0.0017,"dx":0.0017,"nx":28,"ny":28,"refTime":"2024-07-20T03:00:00:Z","depth":0,"parameterNumber":3,"parameterNumberName":"V-component_of_WINDS"},"data":[0,0,0,0,0,0,0,0,0,0,0,0,0,0,0,0,0,0,0,0,0,0,0,0,0,0,0,0,0,0,0,0,0,0,0,0,0,0,0,0,0,0,0,0,0,0,0,0,0,0,0,0,0,0,0,0,0,0,2.9738,2.9737,0,2.9698,2.9697,2.9697,2.9688,2.9688,2.9689,2.9689,2.9644,2.9643,2.9641,0,0,0,0,0,0,0,0,0,0,0,0,0,2.9804,2.9802,2.9738,2.9737,2.9737,2.9698,2.9697,2.9697,2.9688,2.9688,2.9689,2.9689,2.9645,2.9643,2.9641,0,0,0,0,0,0,0,0,0,0,0,0,0,2.977,2.9802,2.9738,2.9728,2.9727,2.9698,2.9697,2.9696,2.9688,2.9688,2.9689,2.9689,2.9645,2.9643,2.9641,2.9618,0,0,2.9634,2.9633,0,0,0,0,0,0,0,0,2.9772,2.9768,2.973,2.9729,2.9727,2.9698,2.9704,2.967,2.9688,2.9703,2.9689,2.9689,2.9662,2.9658,2.9649,2.9616,2.9614,2.9634,2.9633,2.9632,2.9631,0,0,0,0,0,0,0,2.9774,2.9769,2.9722,2.9729,2.9728,2.9724,2.972,2.9697,2.968,2.9701,2.9701,2.9696,2.9661,2.9652,2.9648,2.9614,2.9634,2.9632,2.9631,2.963,2.9557,2.9557,0,0,0,0,0,0,2.9779,2.9771,2.9723,2.9721,2.9751,2.9723,2.9718,2.9707,2.968,2.9677,2.9696,2.9696,2.9655,2.9651,2.9647,2.9617,2.9632,2.963,2.9628,2.9558,2.9557,2.9556,0,0,0,0,0,0,2.978,2.9775,2.9725,2.9746,2.9739,2.9721,2.9709,2.9706,2.9697,2.9676,2.9672,2.969,2.9655,2.965,2.9625,2.9615,2.9629,2.9627,2.9559,2.9558,2.9557,2.9558,0,0,0,0,0,0,2.9782,2.9775,2.9768,2.9746,2.9738,2.9705,2.9708,2.9705,2.9693,2.9693,2.9669,2.9666,2.9655,2.9628,2.9623,2.9612,2.9625,2.9559,2.9558,2.9557,2.9559,2.9557,2.9556,0,0,0,0,0,2.9785,2.9769,2.9767,2.9761,2.9728,2.9705,2.97,2.9689,2.9693,2.9684,2.967,2.9667,2.9617,2.9626,2.962,2.9608,2.956,2.9558,2.9557,2.9559,2.9557,2.9556,0,0,0,0,0,0,2.9789,2.9766,2.9764,2.9741,2.9725,2.9703,2.9692,2.9688,2.967,2.967,2.9656,2.9651,2.9627,2.9615,2.9625,2.9584,2.9589,2.9586,2.9592,2.9591,2.9589,2.9592,2.9623,0,0,0,0,0,2.9788,2.9772,2.9752,2.9734,2.9726,2.971,2.97,2.9693,2.9675,2.9668,2.9653,2.9635,2.9615,2.9602,2.9583,2.9557,2.9551,2.9546,2.9545,2.9544,2.9541,2.9525,2.9522,2.9552,2.9552,2.9552,0,0,2.9784,2.977,2.976,2.9734,2.9721,2.9703,2.9705,2.9686,2.9672,2.9665,2.964,2.9628,2.9607,2.9581,2.9569,2.9571,2.9532,2.9542,2.9541,2.9539,2.9523,2.952,2.9518,2.9551,2.9551,2.9551,0,0,2.9769,2.9757,2.974,2.9726,2.9706,2.9696,2.9692,2.9671,2.9662,2.9638,2.9632,2.9614,2.9581,2.9566,2.9554,2.9531,2.9526,2.9525,2.9518,2.9502,2.9499,2.9497,2.9488,2.9484,2.9523,2.9523,2.9523,0,2.9767,2.9741,2.9731,2.9713,2.97,2.9694,2.9675,2.9662,2.9637,2.9628,2.963,2.9588,2.9573,2.9543,2.9537,2.9528,2.9521,2.9528,2.9501,2.9498,2.9496,2.9487,2.9483,2.9523,2.9523,2.9523,2.9523,0,2.9738,2.9721,2.9709,2.9685,2.9672,2.9653,2.9639,2.9626,2.962,2.9609,2.9583,2.9565,2.9542,2.9534,2.9528,2.9502,2.9504,2.9504,2.9508,2.9493,2.9484,2.9481,2.9523,2.9523,2.9523,2.9523,0,0,2.9725,2.9695,2.9691,2.9679,2.9657,2.9642,2.9622,2.96,2.9589,2.9571,2.9553,2.9525,2.9524,2.9511,2.9502,2.9489,2.947,2.949,2.9489,2.9486,2.9438,2.9438,2.9434,2.9467,2.9466,2.9466,2.944,0,2.9705,2.9672,2.9661,2.9632,2.9615,2.9607,2.959,2.9573,2.9562,2.9544,2.9531,2.9511,2.9512,2.9504,2.949,2.9475,2.946,2.9477,2.9448,2.9447,2.9453,2.9429,2.9429,2.9406,2.9436,2.9436,2.9435,0,2.9678,2.9661,2.963,2.9608,2.9601,2.9585,2.9563,2.9547,2.9527,2.952,2.9504,2.9497,2.9474,2.948,2.9448,2.946,2.9447,2.9438,2.9437,2.9433,2.944,2.9423,2.9398,2.9394,2.943,2.943,2.9431,0,2.967,2.9638,2.9616,2.9606,2.9581,2.957,2.9558,2.9539,2.9526,2.9506,2.9497,2.9475,2.9462,2.9444,2.943,2.9436,2.9398,2.9404,2.939,2.939,2.9382,2.9382,2.9353,2.9376,2.9376,2.9376,2.9376,0,2.9649,2.963,2.9611,2.9597,2.9575,2.9563,2.9541,2.9529,2.9512,2.9494,2.9486,2.9469,2.9452,2.9433,2.9422,2.9395,2.939,2.9382,2.9379,2.9382,2.9383,2.9373,2.9374,2.9375,2.9375,2.9375,2.9376,0,2.9635,2.9622,2.9597,2.9574,2.9568,2.9553,2.9533,2.9518,2.9506,2.9484,2.9478,2.9459,2.9435,2.942,2.9389,2.9382,2.9353,2.9351,2.936,2.9358,2.9345,2.9345,2.9306,2.93,2.9329,2.9329,2.9328,0,2.9622,2.9607,2.9583,2.9571,2.956,2.9541,2.9527,2.9514,2.95,2.9476,2.9463,2.9439,2.9419,2.9382,2.9364,2.934,2.9337,2.9325,2.9333,2.9336,2.9335,2.9335,2.9333,2.9323,2.9323,2.9323,2.9323,0,2.9599,2.9594,2.9575,2.9554,2.9538,2.9521,2.9503,2.9493,2.9477,2.9461,2.9438,2.9422,2.9391,2.9366,2.9341,2.9327,2.9321,2.932,2.9315,2.9318,2.9323,2.9318,2.9355,2.9321,2.9321,2.9321,2.9321,2.9321,2.9585,2.9571,2.9552,2.9531,2.9516,2.95,2.9484,2.9471,2.9451,2.9425,2.9418,2.9393,2.9371,2.9337,2.9323,2.9301,2.9303,2.9296,2.9294,2.9293,2.9292,2.9327,2.9297,2.9297,2.9297,2.9297,2.9297,0,2.9561,2.9548,2.9529,2.9505,2.9488,2.9485,2.9465,2.9451,2.9429,2.941,2.939,2.9362,2.9338,2.9318,2.9293,2.928,2.9276,2.9273,2.9273,2.927,2.9293,2.9299,2.9276,2.9276,2.9276,2.9276,2.9276,2.9276,2.9546,2.9522,2.9514,2.9481,2.9468,2.9444,2.9433,2.9417,2.9401,2.937,2.9351,2.9339,2.9319,2.9292,2.9269,2.9263,2.9254,2.9251,2.9245,2.9266,2.9269,2.9271,2.9276,2.925,2.925,2.9224,2.9224,2.9224]}]]